sat.trackr.live / text

‹ back to catalog

STARLINK-1404

NORAD 45686 · 2020-035AF

PAYLOAD ACTIVE UNKNOWN

§ Identity

Operator
Country
US
Launch date
2020-06-04
Launch site
AFETR
Launch vehicle
Mass (kg)
RCS (m²)

Purposes: comms

External: N2YO · Heavens-Above · Gunter

§ Orbital elements

Epoch: 2026-05-25T01:25:01.695360Z

Period
93.34 min
Inclination
53.1586°
Eccentricity
0.0004969
Mean motion
15.42723270 rev/d
Perigee alt
434.7 km
Apogee alt
441.5 km
Semi-major
6,816.2 km
B*
1.1545e-3
RAAN
50.8220°
Arg perigee
111.4124°
Mean anomaly
248.7412°
Rev number
33,072

§ Raw data

STARLINK-14041 45686U 20035AF  26145.05904740  .00051140  00000+0  11545-2 0  99942 45686  53.1586  50.8220 0004969 111.4124 248.7412 15.42723270330724

JSON: /api/v1/satellites/45686 · /tle

For live sub-satellite position, see the globe view (requires WebGL).

§ Visibility from observer

Set your observer location to see the next 7 days of passes ≥ 10°. The values pass through the URL so the page stays shareable.

No JS? Fill the form by hand. The geolocation button needs JavaScript.